Tracking 31027 objects as of 18-Jul-2025
HD Live streaming from Space Station
objects crossing your sky now

DELTA 1 DEB

Track DELTA 1 DEB now!
10-day predictions


NORAD ID: 48088
Int'l Code: 1976-077GT
Perigee: 1,511.0 km
Apogee: 1,694.9 km
Inclination: 102.1 °
Period: 118.1 minutes
Semi major axis: 7973 km
RCS: Unknown
Launch date: July 29, 1976
Source: United States (US)
Launch site: AIR FORCE WESTERN TEST RANGE (AFWTR)

Note: This is SATELLITE DEBRIS
Your satellite tracking list
Your tracking list is empty




NASA's NSSDC Master Catalog

Two Line Element Set (TLE):
1 48088U 76077GT  25197.94670435 -.00000036  00000-0  67078-4 0  9999
2 48088 102.1082 239.8267 0115319 223.6061 259.2741 12.19244774518646
Source of the keplerian elements: AFSPC